Home > Weather > Taiohae > Past weeks

Flag for French Polynesia Weather for the Past 2 Weeks in Taiohae, Marquesas Islands, French Polynesia

Now
78 °F

Partly sunny.


Feels Like: 81 °F
Forecast: 82 / 87 °F
Wind: 1 mph from North

Location: Atuona

Current Time: Feb 14, 2016 at 7:46:01 AM

Latest Report: Feb 14, 2016 at 6:30 AM


Visibility: 19 mi

Pressure: 29.77 "Hg

Humidity: 85%

Dew point: 73 °F

Location of TaiohaeLocation

Historic Weather in Taiohae — Graph

°F

Taiohae Temperature Yesterday

Maximum temperature yesterday: 87 °F (at 9:30 AM)
Minimum temperature yesterday: 78 °F (at 5:30 AM)
Average temperature yesterday: 82 °F

High & Low Weather Summary for the Past Weeks

 TemperatureHumidityPressure
High90 °F (Jan 31, 9:30 AM)91% (Jan 30, 6:30 AM)29.93 "Hg (Jan 30, 6:30 AM)
Low75 °F (Jan 31, 3:30 AM)59% (Jan 31, 4:30 PM)29.69 "Hg (Feb 12, 2:30 PM)
Average82 °F76%29.81 "Hg
* Reported Jan 30 6:30 AM — Feb 14 6:30 AM, Taiohae, Weather by CustomWeather, © 2016

Note: Actual official high and low records may vary slightly from our data, if they occured in-between our weather recording intervals... More about our weather records

Advertising

Taiohae Weather History for the Previous 24 Hours

 ConditionsComfort  
Time TempWeatherWind HumidityBarometerVisibility
6:30 AM
Sun, Feb 14
78 °FPartly sunny.1 mph85%29.77 "Hg19 mi
5:30 AM77 °FScattered clouds.3 mph87%29.74 "Hg6 mi
4:30 AM77 °FWarm.2 mph86%29.73 "HgN/A
3:30 AM77 °FWarm.3 mph84%29.72 "HgN/A
2:30 AM78 °FWarm.1 mph84%29.72 "HgN/A
1:30 AM77 °FWarm.2 mph85%29.74 "HgN/A
12:30 AM78 °FWarm.2 mph84%29.76 "HgN/A
11:30 PM
Sat, Feb 13
78 °FWarm.2 mph81%29.78 "HgN/A
10:30 PM79 °FWarm.3 mph83%29.79 "HgN/A
9:30 PM79 °FWarm.2 mph83%29.79 "HgN/A
8:30 PM80 °FWarm.1 mph82%29.79 "HgN/A
7:30 PM81 °FWarm.1 mph79%29.77 "HgN/A
5:30 PM84 °FWarm.13 mph72%29.72 "HgN/A
4:30 PM84 °FOvercast.15 mph73%29.71 "Hg19 mi
3:30 PM86 °FOvercast.14 mph71%29.70 "Hg19 mi
2:30 PM85 °FOvercast.20 mph71%29.70 "Hg19 mi
11:30 AM87 °FWarm.15 mph67%29.77 "HgN/A
10:30 AM87 °FScattered clouds.14 mph67%29.79 "Hg19 mi
9:30 AM87 °FScattered clouds.14 mph70%29.80 "Hg19 mi
8:30 AM85 °FOvercast.14 mph71%29.81 "Hg19 mi
7:30 AM85 °FOvercast.2 mph70%29.81 "Hg19 mi
Weather by CustomWeather, © 2016

See weather overviewHow to use our weather pages